Wind_Speed
4 4 5 5 4 4 4 4 3 3 4 5 5 5 5 5 5 5 5 5 6 5 5 5 5 5 5 5 5 6 6 6 6 7 7 7 6 7 7 7 7 8 8
5 5 5 5 5 4 3 3 3 3 4 4 5 5 5 5 5 5 5 5 6 5 5 5 4 4 5 5 5 6 6 6 6 7 7 7 7 7 6 7 7 8 8
5 4 5 5 4 4 3 3 3 3 3 4 4 4 5 5 5 4 4 5 5 5 4 4 4 4 5 5 5 5 6 6 6 6 7 7 7 7 6 7 7 7 7
5 4 3 4 3 3 3 3 3 3 3 3 4 4 5 5 5 5 5 5 5 5 4 4 4 4 5 5 4 5 5 6 5 6 6 7 7 7 7 7 7 7 8
6 5 4 4 3 3 4 4 3 2 2 3 4 4 5 5 4 4 5 5 5 5 4 4 3 3 4 4 4 4 4 5 5 5 6 6 7 6 7 7 7 8 8
7 6 5 4 3 3 3 3 3 3 2 2 4 4 5 5 4 4 5 5 5 5 4 4 3 3 3 3 3 4 4 4 4 5 5 6 6 6 7 7 7 7 7
7 6 5 4 4 4 4 4 3 3 2 2 3 4 3 3 4 4 5 5 5 5 4 4 3 3 3 3 4 4 4 4 4 4 6 6 6 7 7 6 6 7 6
8 6 5 4 3 3 3 3 3 2 2 2 3 3 3 3 4 5 5 5 5 4 4 4 3 3 3 3 4 4 4 4 4 5 6 6 6 6 6 6 5 5 5
8 7 6 5 3 3 2 3 3 2 2 2 3 3 3 3 3 4 4 5 4 4 4 4 4 3 3 3 4 4 4 4 5 5 6 6 6 6 6 5 5 5 5
9 8 6 6 4 3 2 2 2 2 2 2 3 3 3 3 3 3 4 4 4 4 4 4 4 4 3 3 4 4 4 4 5 5 6 6 5 5 5 5 5 4 4
11 9 8 7 6 4 3 2 2 2 3 3 3 3 3 3 3 3 3 4 4 4 4 4 4 4 3 4 4 4 4 5 4 5 5 5 5 5 4 5 4 4 3
12 10 9 8 6 5 4 2 2 3 3 4 3 3 3 3 3 2 3 3 3 4 4 4 5 4 3 4 5 5 5 4 4 4 4 4 4 4 4 4 4 4 3
13 11 10 8 7 6 5 3 2 3 4 4 4 3 2 3 3 3 3 4 3 3 4 4 4 5 4 4 5 5 5 4 4 4 4 4 4 4 4 4 4 4 3
14 12 12 10 8 7 5 4 2 3 3 4 4 3 3 2 3 3 4 4 4 3 4 4 4 4 4 5 5 5 4 4 4 4 3 4 4 4 4 3 3 3 3
15 13 12 12 11 8 7 5 3 2 2 3 3 3 3 3 3 3 3 4 4 4 4 5 5 5 5 5 5 5 5 4 4 3 3 3 4 4 4 4 3 4 4
17 16 14 13 12 10 8 6 4 3 2 3 3 3 3 3 3 3 4 4 4 4 5 6 5 6 6 7 6 6 5 5 5 4 4 3 4 5 5 5 4 4 4
18 17 16 15 14 12 10 8 6 4 3 1 2 3 3 4 4 3 4 4 4 4 5 6 6 6 7 8 7 7 6 6 5 6 5 5 5 5 6 6 6 5 5
18 17 17 16 15 14 12 10 9 7 4 3 0 2 2 3 4 4 4 5 5 5 5 5 6 7 8 8 8 8 8 7 7 7 7 7 6 7 6 7 7 7 7
17 17 16 16 16 15 13 11 10 9 6 4 2 0 1 3 4 4 5 5 6 6 6 6 6 7 8 8 8 9 8 8 8 8 8 9 8 8 8 8 8 8 8
17 16 16 16 16 15 14 12 11 10 7 5 4 3 1 1 2 4 5 6 6 6 6 6 6 7 8 9 9 10 9 9 10 10 10 10 10 10 10 9 10 10 9
16 16 16 16 16 15 14 12 12 11 9 6 5 5 3 1 1 2 4 5 6 6 6 7 7 8 9 10 10 11 11 11 11 11 12 12 12 12 12 12 12 11 11
15 15 15 15 15 14 14 13 12 11 10 8 7 5 4 2 1 2 3 4 5 6 6 8 8 8 9 10 11 12 12 12 12 12 13 13 14 14 14 14 14 13 13
14 14 14 15 16 15 14 14 12 11 10 8 8 6 5 3 2 1 2 3 5 6 7 8 9 10 10 10 11 11 12 13 13 13 13 14 15 15 15 15 15 15 15
13 14 14 14 15 15 14 14 13 11 9 8 7 7 6 4 3 2 3 3 4 5 7 8 9 10 11 11 12 12 12 13 14 14 14 14 15 16 16 16 16 16 16
12 13 13 14 14 14 14 14 13 11 10 9 8 7 7 6 4 4 4 4 5 6 7 8 9 10 11 12 13 13 13 14 14 15 15 15 15 15 17 17 17 18 17
11 12 12 13 14 14 14 14 13 12 11 10 9 8 7 6 5 5 5 5 6 6 7 8 9 10 11 11 12 13 14 15 15 15 15 16 16 16 16 18 18 19 19
Wind_Direction
82 102 117 116 114 117 134 136 144 157 165 166 169 173 168 164 162 159 153 152 147 139 135 133 128 118 116 118 110 107 108 111 111 107 106 105 105 110 108 104 103 102 101
87 103 114 110 118 121 134 147 169 166 173 177 178 183 178 175 170 164 158 152 150 145 139 133 133 125 121 122 119 112 109 113 114 110 108 107 110 111 110 110 107 102 100
86 100 112 110 110 107 130 150 151 160 180 189 189 187 186 184 178 175 167 163 159 151 147 141 137 130 128 126 123 117 113 114 109 111 108 109 112 110 111 112 108 105 105
77 95 113 112 105 115 137 146 147 155 175 190 193 194 192 188 186 186 184 179 172 164 157 148 145 139 135 132 129 124 120 116 105 110 108 112 113 110 110 111 109 109 108
70 76 94 97 109 133 153 154 158 164 186 200 201 202 202 200 199 196 188 178 174 171 167 159 155 149 144 142 140 136 129 122 119 120 114 119 120 117 115 113 110 112 109
70 71 87 93 106 122 139 149 164 164 170 187 202 205 206 206 203 201 191 186 182 179 177 171 167 162 156 156 151 146 144 141 134 133 129 131 130 123 119 115 113 113 111
69 67 77 90 106 119 124 124 134 147 148 162 188 198 203 211 215 205 198 194 189 191 193 186 182 175 166 159 161 154 151 150 143 145 141 140 137 130 125 120 117 118 117
60 62 67 75 99 116 135 148 141 140 153 171 183 190 195 203 208 206 202 200 200 207 204 193 184 180 166 161 160 158 152 147 144 147 139 141 138 137 135 128 126 126 125
55 57 59 67 89 109 129 157 171 166 163 171 183 195 204 203 207 207 203 203 207 213 205 195 194 179 171 167 161 156 156 150 147 141 141 144 142 140 141 139 141 142 137
51 53 56 61 75 89 110 143 168 178 178 185 190 195 203 199 197 199 205 206 206 209 205 195 188 182 174 167 164 161 161 158 155 149 148 150 148 146 146 148 147 141 140
51 54 58 58 65 75 87 111 146 171 171 175 182 195 199 190 191 200 206 204 202 204 204 194 181 173 167 163 161 163 161 161 162 159 159 161 162 162 160 161 164 161 157
48 52 55 56 61 64 67 85 140 161 168 170 171 183 196 198 200 206 208 200 196 202 197 188 181 176 170 164 159 159 160 163 167 170 170 165 169 173 170 171 178 181 181
49 51 50 48 52 55 58 69 119 150 161 170 173 179 189 200 210 211 207 202 195 206 198 187 183 180 172 166 164 160 160 164 170 178 183 177 176 181 182 180 188 196 206
50 52 50 47 47 51 57 61 81 144 167 178 180 185 181 190 206 207 201 199 197 202 201 194 185 182 182 179 172 168 170 174 180 183 193 190 192 195 198 199 208 218 225
48 53 55 52 49 52 55 60 74 129 181 182 188 193 197 203 202 204 207 210 210 207 207 201 196 193 191 187 187 183 185 188 189 195 202 205 210 211 213 218 229 241 244
45 47 50 51 50 52 53 57 65 78 141 185 195 203 210 223 228 217 214 218 216 211 213 212 209 204 203 200 200 199 201 206 210 218 225 228 228 227 226 230 241 251 252
45 44 45 46 47 48 51 55 55 60 70 104 192 203 213 221 226 221 214 224 220 218 218 218 220 214 215 211 212 215 216 219 224 229 233 239 241 239 239 241 250 256 254
43 42 44 44 44 44 47 50 52 47 45 48 96 200 218 222 223 226 223 226 224 223 223 230 235 225 221 221 224 225 227 229 233 237 239 245 246 245 248 253 256 257 257
40 40 40 41 42 42 42 45 46 43 39 45 46 12 239 232 228 229 233 230 232 231 232 234 245 237 230 231 233 233 234 234 235 240 245 247 248 248 254 257 257 260 260
38 39 38 38 39 39 38 40 41 41 43 49 39 21 329 259 235 232 242 240 238 238 244 246 248 243 239 242 244 246 247 242 241 244 249 251 252 254 258 257 259 262 262
36 37 37 36 36 37 37 37 38 40 43 50 44 35 24 341 255 248 250 247 243 243 247 253 254 250 249 247 248 251 253 252 247 247 251 254 255 257 258 259 262 262 264
34 35 35 34 34 34 34 34 35 37 40 45 46 36 27 12 312 262 257 253 250 253 256 257 256 255 254 254 251 253 255 256 253 252 253 255 256 258 259 261 262 265 267
30 32 32 32 32 33 30 31 31 31 33 33 29 25 24 18 0 321 281 269 264 262 262 263 259 256 259 256 254 258 260 258 260 257 259 261 259 259 259 262 262 263 266
27 28 29 30 30 32 30 29 28 28 27 26 24 24 24 21 11 355 325 306 290 275 268 265 260 258 259 258 257 259 263 262 261 262 262 264 263 262 260 260 261 263 266
25 25 26 26 26 28 28 27 26 26 24 22 20 21 21 21 22 14 352 328 312 298 283 274 267 263 263 263 263 263 263 264 263 262 264 265 265 265 261 260 263 264 264
21 21 22 22 23 24 26 25 26 24 23 21 17 14 9 8 6 2 357 342 329 315 302 289 280 272 269 270 269 266 264 264 264 263 263 264 266 267 264 262 263 263 263
Height
5895 5895 5895 5895 5895 5896 5896 5896 5897 5898 5898 5899 5899 5899 5899 5900 5900 5901 5901 5901 5901 5901 5902 5902 5902 5902 5902 5901 5901 5901 5901 5901 5900 5900 5900 5900 5900 5900 5900 5900 5900 5900 5900
5896 5895 5895 5896 5896 5896 5897 5897 5898 5898 5899 5899 5900 5900 5900 5901 5901 5901 5901 5902 5902 5902 5902 5902 5903 5903 5902 5902 5902 5902 5902 5901 5901 5901 5901 5900 5900 5901 5901 5901 5901 5901 5901
5896 5896 5896 5896 5896 5897 5897 5898 5898 5899 5899 5900 5900 5900 5901 5901 5901 5902 5902 5902 5903 5903 5903 5903 5903 5903 5903 5903 5903 5902 5902 5902 5902 5902 5902 5902 5902 5902 5902 5902 5902 5902 5902
5896 5896 5897 5897 5897 5897 5898 5898 5899 5899 5900 5900 5901 5901 5901 5901 5902 5902 5903 5903 5903 5903 5903 5904 5904 5904 5903 5903 5903 5903 5903 5903 5903 5903 5903 5903 5903 5903 5903 5903 5903 5903 5903
5897 5897 5897 5897 5897 5898 5898 5899 5899 5900 5900 5900 5901 5901 5902 5902 5902 5902 5903 5903 5904 5904 5904 5904 5904 5904 5904 5904 5904 5904 5903 5903 5903 5904 5904 5904 5904 5904 5904 5904 5904 5904 5904
5898 5898 5898 5898 5898 5898 5899 5899 5900 5900 5900 5901 5901 5902 5902 5902 5902 5903 5903 5904 5904 5904 5904 5904 5904 5904 5904 5904 5904 5904 5904 5904 5904 5904 5904 5904 5905 5905 5905 5905 5905 5905 5905
5899 5899 5899 5898 5899 5899 5899 5900 5900 5900 5900 5901 5901 5901 5902 5902 5903 5903 5903 5904 5904 5904 5904 5904 5904 5904 5904 5904 5904 5904 5904 5904 5905 5905 5905 5905 5905 5905 5906 5906 5906 5906 5906
5900 5900 5900 5899 5899 5899 5900 5900 5900 5900 5901 5901 5901 5902 5902 5902 5902 5903 5903 5903 5904 5904 5904 5904 5904 5904 5904 5904 5904 5904 5905 5905 5905 5905 5905 5905 5906 5906 5906 5906 5907 5907 5907
5901 5901 5900 5900 5900 5900 5899 5899 5900 5900 5901 5901 5901 5902 5902 5902 5902 5903 5903 5903 5904 5904 5904 5904 5904 5904 5904 5904 5904 5905 5905 5905 5905 5905 5906 5906 5906 5906 5906 5907 5907 5907 5907
5902 5901 5901 5900 5900 5900 5899 5900 5900 5900 5900 5901 5901 5901 5902 5902 5902 5903 5903 5903 5903 5903 5903 5904 5904 5904 5904 5904 5905 5905 5905 5906 5906 5906 5906 5906 5906 5907 5907 5907 5907 5907 5907
5903 5902 5901 5901 5900 5900 5900 5900 5900 5900 5900 5900 5901 5901 5902 5902 5902 5903 5903 5903 5903 5903 5903 5903 5904 5904 5905 5905 5905 5905 5905 5906 5906 5906 5906 5906 5907 5907 5907 5907 5907 5907 5907
5904 5903 5902 5901 5900 5900 5899 5899 5899 5899 5900 5900 5901 5901 5901 5902 5902 5902 5903 5903 5903 5903 5903 5903 5904 5904 5905 5905 5905 5905 5906 5906 5906 5906 5906 5907 5907 5907 5907 5907 5907 5907 5907
5905 5904 5903 5901 5900 5900 5899 5899 5899 5899 5899 5900 5900 5901 5901 5901 5902 5902 5902 5903 5903 5903 5903 5904 5904 5904 5905 5905 5905 5906 5906 5906 5906 5906 5907 5907 5907 5907 5907 5907 5907 5907 5907
5907 5905 5904 5902 5901 5900 5899 5899 5899 5899 5899 5900 5900 5900 5901 5901 5901 5902 5902 5902 5902 5903 5903 5903 5904 5904 5905 5905 5905 5906 5906 5906 5907 5907 5907 5907 5907 5907 5907 5907 5907 5907 5907
5909 5907 5906 5904 5902 5901 5900 5899 5899 5899 5899 5899 5900 5900 5900 5901 5901 5901 5902 5902 5902 5902 5903 5903 5903 5904 5904 5905 5905 5906 5906 5906 5906 5907 5907 5907 5907 5907 5907 5907 5907 5906 5906
5909 5908 5906 5905 5903 5902 5901 5900 5899 5899 5899 5899 5899 5900 5900 5900 5901 5901 5901 5902 5902 5902 5902 5903 5903 5903 5904 5904 5905 5905 5906 5906 5906 5906 5906 5906 5906 5906 5906 5906 5906 5905 5905
5911 5909 5907 5906 5904 5903 5902 5901 5900 5899 5898 5898 5899 5899 5899 5900 5900 5900 5901 5901 5901 5901 5901 5902 5902 5903 5903 5904 5904 5905 5905 5905 5905 5905 5905 5905 5905 5905 5905 5905 5905 5904 5904
5914 5911 5910 5908 5906 5904 5903 5901 5900 5899 5898 5898 5898 5899 5899 5899 5899 5900 5900 5900 5900 5901 5901 5901 5901 5902 5902 5903 5903 5903 5903 5904 5904 5904 5904 5904 5904 5904 5904 5904 5903 5903 5902
5916 5914 5912 5910 5908 5906 5904 5902 5901 5899 5898 5898 5898 5898 5898 5898 5898 5898 5899 5899 5899 5900 5900 5900 5900 5900 5901 5901 5901 5902 5902 5902 5902 5902 5902 5902 5902 5902 5902 5902 5901 5901 5901
5918 5916 5914 5911 5909 5907 5905 5903 5901 5900 5899 5898 5897 5897 5897 5897 5897 5897 5897 5897 5898 5898 5899 5899 5899 5899 5899 5900 5900 5900 5900 5900 5900 5900 5900 5900 5900 5900 5900 5899 5899 5899 5899
5920 5918 5915 5913 5910 5908 5906 5904 5902 5900 5899 5898 5897 5897 5896 5896 5896 5896 5896 5896 5896 5897 5897 5897 5897 5897 5897 5898 5898 5898 5898 5898 5898 5898 5897 5898 5898 5897 5897 5897 5897 5897 5896
5921 5919 5917 5914 5912 5909 5907 5905 5903 5901 5899 5898 5897 5896 5896 5895 5895 5895 5895 5895 5895 5895 5895 5895 5895 5895 5895 5895 5896 5895 5896 5896 5895 5895 5895 5895 5895 5894 5894 5894 5894 5893 5893
5923 5920 5918 5915 5913 5910 5908 5906 5904 5902 5900 5899 5897 5896 5895 5894 5894 5894 5894 5893 5893 5893 5893 5893 5893 5893 5893 5893 5893 5893 5893 5893 5893 5893 5892 5892 5892 5891 5891 5891 5890 5890 5889
5923 5921 5919 5916 5914 5911 5909 5906 5904 5902 5901 5899 5898 5896 5895 5894 5893 5893 5893 5892 5892 5892 5891 5891 5891 5891 5891 5890 5890 5890 5890 5890 5890 5889 5889 5889 5888 5888 5888 5887 5887 5886 5886
5924 5922 5920 5917 5915 5912 5910 5907 5905 5903 5901 5899 5898 5897 5895 5894 5893 5893 5892 5891 5891 5890 5889 5889 5889 5888 5888 5888 5887 5887 5887 5887 5886 5886 5886 5885 5885 5884 5884 5883 5883 5882 5882
5925 5923 5921 5918 5916 5913 5911 5908 5906 5904 5902 5900 5898 5897 5896 5895 5893 5892 5891 5890 5889 5888 5887 5886 5886 5885 5885 5885 5884 5884 5883 5883 5883 5882 5882 5881 5881 5880 5880 5879 5879 5878 5877